Weather History for KTKI - November, 2013

Change the Weather History Date:

Wednesday, November 13, 2013

  Actual Average (KADS) Record (KADS)
Temperature  
Mean Temperature 38 °F -  
Max Temperature 51 °F 64 °F 82 °F (1999)
Min Temperature 26 °F 49 °F 30 °F (2014)
Degree Days  
Heating Degree Days 26    
Moisture  
Dew Point 23 °F    
Average Humidity 60    
Maximum Humidity 82    
Minimum Humidity 31    
Precipitation  
Precipitation 0.00 in - - ()
Sea Level Pressure  
Sea Level Pressure 30.62 in    
Wind  
Wind Speed 4 mph (SE)    
Max Wind Speed 8 mph    
Max Gust Speed -    
Visibility 10 miles    
Events      
Averages and records for this station are not official NWS values.
T = Trace of Precipitation, MM = Missing Value Source: NWS Daily Summary

Daily Weather History Graph

Daily Weather History Graph

Search for Another Location

Airport or City:

Trip Planner

Search our weather history database for the weather conditions in past years. The results will help you decide how hot, cold, wet, or windy it might be!

Date:

Astronomy

Nov. 13, 2013 Rise Set
Actual Time 6:55 AM CST 5:25 PM CST
Civil Twilight 6:29 AM CST 5:51 PM CST
Nautical Twilight 5:59 AM CST 6:21 PM CST
Astronomical Twilight 5:30 AM CST 6:50 PM CST
Moon 3:03 PM CST (11/13) 3:01 AM CST (11/13)
Length of Visible Light 11h 22m
Length of Day
10h 29m
Waxing Gibbous, 85% of the Moon is Illuminated
Nov 13
Waxing Gibbous
Nov 17
Full
Nov 25
Last Quarter
Dec 2
New
Dec 9
First Quarter

Hourly Weather History & Observations

Time (CST) Temp. Windchill Dew Point Humidity Pressure Visibility Wind Dir Wind Speed Gust Speed Precip Events Conditions
12:53 AM 30.9 °F 25.2 °F 19.9 °F 64% 30.74 in 10.0 mi North 5.8 mph - N/A   Clear
1:53 AM 30.9 °F 25.2 °F 19.9 °F 64% 30.74 in 10.0 mi North 5.8 mph - N/A   Clear
2:53 AM 30.0 °F - 19.9 °F 66% 30.73 in 10.0 mi Calm Calm - N/A   Clear
3:53 AM 28.0 °F 24.2 °F 19.9 °F 72% 30.73 in 10.0 mi North 3.5 mph - N/A   Clear
4:53 AM 28.0 °F 24.2 °F 19.9 °F 72% 30.74 in 10.0 mi NNW 3.5 mph - N/A   Clear
5:53 AM 26.1 °F 21.9 °F 19.9 °F 78% 30.74 in 10.0 mi North 3.5 mph - N/A   Clear
6:53 AM 26.1 °F - 21.0 °F 81% 30.73 in 10.0 mi Calm Calm - N/A   Clear
7:53 AM 28.9 °F - 21.9 °F 75% 30.74 in 10.0 mi Calm Calm - N/A   Clear
8:53 AM 35.1 °F 31.0 °F 24.1 °F 64% 30.74 in 10.0 mi ESE 4.6 mph - N/A   Clear
9:53 AM 39.9 °F 35.1 °F 24.1 °F 53% 30.73 in 10.0 mi SSE 6.9 mph - N/A   Clear
10:53 AM 42.1 °F 39.2 °F 21.9 °F 45% 30.71 in 10.0 mi South 4.6 mph - N/A   Clear
11:53 AM 44.1 °F - 21.9 °F 42% 30.66 in 10.0 mi Calm Calm - N/A   Clear
12:53 PM 46.9 °F - 21.9 °F 37% 30.62 in 10.0 mi NNE 3.5 mph - N/A   Clear
1:53 PM 48.9 °F - 21.9 °F 35% 30.58 in 10.0 mi Calm Calm - N/A   Clear
2:53 PM 50.0 °F - 21.0 °F 32% 30.55 in 10.0 mi South 5.8 mph - N/A   Clear
3:53 PM 51.1 °F - 21.0 °F 31% 30.53 in 10.0 mi SE 5.8 mph - N/A   Clear
4:53 PM 48.0 °F - 21.9 °F 36% 30.52 in 10.0 mi South 8.1 mph - N/A   Clear
5:53 PM 43.0 °F 41.3 °F 26.1 °F 51% 30.51 in 10.0 mi SSE 3.5 mph - N/A   Clear
6:53 PM 39.0 °F - 26.1 °F 60% 30.51 in 10.0 mi Calm Calm - N/A   Clear
7:53 PM 37.0 °F 33.3 °F 27.0 °F 67% 30.51 in 10.0 mi South 4.6 mph - N/A   Clear
8:53 PM 35.1 °F - 27.0 °F 72% 30.48 in 10.0 mi Calm Calm - N/A   Clear
9:53 PM 32.0 °F - 27.0 °F 82% 30.46 in 10.0 mi Calm Calm - N/A   Clear
10:53 PM 32.0 °F 28.7 °F 26.1 °F 79% 30.44 in 10.0 mi South 3.5 mph - N/A   Clear
11:53 PM 32.0 °F - 26.1 °F 79% 30.42 in 10.0 mi Calm Calm - N/A   Clear